Location: Cabo di Oristano
(39.8500°N, 8.4333°E)
Time: 17:36:58
(UTC+00:00)

USA 267 - Pass Details

Date: 31 January 2023
Orbit: 1101 x 1106 km, 123.0° (Epoch: 27 March)

Event Time Altitude Azimuth Distance (km) Brightness Sun altitude
Rises 03:52:34 0° 44° (NE) 3,923 6.8 -31.5°
Reaches altitude 10° 03:55:03 10° 42° (NE) 2,964 6.0 -31.0°
Enters shadow 04:01:23 67° 330° (NNW) 1,188 3.2 -29.8°
